N7WWK-1 Weather Reports


Display with metric or nautical units.
time (UTC)temp
F
wind
direction
speed
MPH
gust
MPH
rain 1hr
in
rain 24hr
in
rain mn
in
humidity
%
barometer
mb
20260510000005 72 31 1.0 4.0 0.00 0.59 0.57 99 1011.6
20260509235004 73 6 1.0 3.0 0.00 0.59 0.57 99 1011.3
20260509234214 73 33 1.0 3.0 0.00 0.59 0.57 99 1011.4
20260509233215 72 360 2.0 4.0 0.00 0.59 0.57 99 1011.3
20260509232004 73 7 2.0 4.0 0.00 0.59 0.57 99 1011.6
20260509231005 74 15 1.0 4.0 0.00 0.59 0.57 99 1011.2
20260509230005 74 13 1.0 3.0 0.00 0.59 0.57 99 1011.0
20260509225004 74 28 0.0 3.0 0.00 0.59 0.57 99 1011.2
20260509224005 74 11 1.0 3.0 0.00 0.59 0.57 99 1010.9
20260509223005 74 28 1.0 4.0 0.00 0.61 0.57 99 1010.9
20260509222005 74 39 1.0 3.0 0.00 0.61 0.57 99 1010.7
20260509221005 74 23 1.0 3.0 0.00 0.61 0.57 99 1011.0
20260509220005 74 53 0.0 2.0 0.00 0.61 0.57 99 1011.1
20260509215215 74 46 1.0 2.0 0.00 0.62 0.57 99 1011.1
20260509214005 74 36 0.0 2.0 0.00 0.63 0.57 99 1011.0
20260509213005 74 20 0.0 1.0 0.00 0.63 0.57 99 1010.9
20260509212005 74 0 0.0 0.0 0.00 0.64 0.57 99 1010.9
20260509211005 73 0 0.0 0.0 0.00 0.64 0.57 99 1010.8
20260509210005 74 0 0.0 0.0 0.02 0.87 0.57 99 1010.9
20260509205005 73 0 0.0 0.0 0.06 1.02 0.57 99 1011.0
20260509204216 73 0 0.0 0.0 0.14 1.05 0.57 99 1010.9
20260509203004 74 53 0.0 1.0 0.49 1.10 0.57 99 1010.8
20260509202005 73 0 0.0 0.0 0.50 1.10 0.57 99 1010.9
20260509201005 73 38 0.0 2.0 0.53 1.10 0.57 99 1011.0
20260509200005 72 14 2.0 4.0 0.55 1.08 0.55 98 1011.2
20260509195005 72 10 2.0 5.0 0.51 1.04 0.51 98 1010.9
20260509194217 73 355 5.0 15.0 0.43 0.96 0.45 97 1011.4
20260509193005 76 33 1.0 3.0 0.08 0.61 0.08 95 1010.8
20260509192004 78 97 0.0 1.0 0.07 0.60 0.07 94 1010.6
20260509191004 79 54 0.0 1.0 0.04 0.57 0.04 90 1010.5
20260509190006 81 1 0.0 1.0 0.00 0.53 0.00 84 1010.8
20260509185005 81 346 2.0 6.0 0.00 0.53 0.00 80 1010.5
20260509184004 83 354 2.0 4.0 0.00 0.53 0.00 79 1010.6
20260509183004 83 3 1.0 4.0 0.00 0.53 0.00 78 1010.7
20260509182005 84 294 1.0 3.0 0.00 0.53 0.00 75 1010.9
20260509181005 84 349 1.0 3.0 0.00 0.53 0.00 76 1011.0
20260509180216 84 322 1.0 4.0 0.00 0.53 0.00 76 1011.1
20260509175004 83 354 2.0 6.0 0.00 0.53 0.00 78 1011.3
20260509174005 83 287 1.0 3.0 0.00 0.53 0.00 76 1011.5
20260509173005 84 48 1.0 4.0 0.00 0.53 0.00 76 1011.2
20260509172004 83 296 1.0 3.0 0.00 0.53 0.00 77 1011.5
20260509171005 82 350 2.0 6.0 0.00 0.53 0.00 78 1011.2
20260509170217 83 233 1.0 3.0 0.00 0.53 0.00 78 1011.5
20260509165004 82 261 1.0 3.0 0.00 0.53 0.00 77 1011.7
20260509164005 83 184 1.0 2.0 0.00 0.53 0.00 78 1011.9
20260509163004 81 248 1.0 2.0 0.00 0.53 0.00 80 1012.0
20260509162004 81 345 1.0 3.0 0.00 0.53 0.00 81 1011.7
20260509161005 80 270 1.0 3.0 0.00 0.53 0.00 80 1011.5
20260509160005 81 204 1.0 2.0 0.00 0.53 0.00 82 1011.5
20260509155004 81 162 0.0 1.0 0.00 0.53 0.00 83 1011.8
20260509154004 80 151 1.0 3.0 0.00 0.53 0.00 85 1011.8
20260509153215 79 228 1.0 4.0 0.00 0.53 0.00 86 1011.8
20260509152005 78 164 1.0 2.0 0.00 0.53 0.00 87 1011.6
20260509151217 78 152 1.0 3.0 0.00 0.53 0.00 88 1011.5
20260509150005 78 144 0.0 1.0 0.00 0.53 0.00 88 1011.8
20260509145004 78 213 1.0 4.0 0.00 0.53 0.00 89 1011.8
20260509144004 77 197 1.0 3.0 0.00 0.53 0.00 89 1012.1
20260509143216 77 220 1.0 2.0 0.00 0.53 0.00 89 1012.1
20260509142005 77 171 1.0 3.0 0.00 0.53 0.00 89 1012.0
20260509141218 77 152 0.0 2.0 0.00 0.53 0.00 89 1011.9
20260509140006 76 187 1.0 2.0 0.00 0.53 0.00 91 1012.0
20260509135215 76 216 1.0 3.0 0.00 0.53 0.00 91 1011.6
20260509134004 75 196 0.0 2.0 0.00 0.53 0.00 91 1011.8
20260509133005 75 217 1.0 2.0 0.00 0.53 0.00 92 1011.7
20260509132005 74 111 0.0 2.0 0.00 0.53 0.00 93 1011.5
20260509131004 74 0 0.0 0.0 0.00 0.53 0.00 93 1011.5
20260509130005 74 147 0.0 2.0 0.00 0.53 0.00 95 1011.5
20260509125005 73 0 0.0 0.0 0.00 0.53 0.00 96 1011.4
20260509124005 72 128 0.0 1.0 0.00 0.53 0.00 98 1011.0
20260509123004 71 103 0.0 1.0 0.00 0.53 0.00 99 1011.1
20260509122218 71 79 0.0 1.0 0.00 0.53 0.00 99 1010.7
20260509121005 70 109 0.0 0.0 0.00 0.53 0.00 99 1011.1
20260509120005 70 115 0.0 1.0 0.00 0.53 0.00 99 1010.9
20260509115004 70 139 0.0 1.0 0.00 0.53 0.00 99 1011.2
20260509114004 69 136 0.0 2.0 0.00 0.53 0.00 99 1010.9
20260509113005 69 169 0.0 2.0 0.00 0.53 0.00 99 1011.0
20260509112004 69 0 0.0 0.0 0.00 0.53 0.00 99 1010.5
20260509111004 67 142 0.0 1.0 0.00 0.53 0.00 99 1010.5
20260509110005 67 0 0.0 0.0 0.00 0.53 0.00 99 1010.6
20260509105004 67 0 0.0 0.0 0.00 0.53 0.00 99 1010.8
20260509104004 66 0 0.0 0.0 0.00 0.53 0.00 99 1010.8
20260509103005 66 0 0.0 0.0 0.00 0.53 0.00 99 1010.8
20260509102004 66 0 0.0 0.0 0.00 0.53 0.00 99 1010.9
20260509101004 66 0 0.0 0.0 0.00 0.53 0.00 99 1011.2
20260509100006 66 0 0.0 0.0 0.00 0.53 0.00 99 1010.9
20260509095005 66 0 0.0 0.0 0.00 0.53 0.00 99 1011.0
20260509094218 66 0 0.0 0.0 0.00 0.53 0.00 99 1011.1
20260509093214 66 0 0.0 0.0 0.00 0.53 0.00 99 1011.0
20260509092004 66 0 0.0 0.0 0.00 0.53 0.00 99 1010.8
20260509091005 66 0 0.0 0.0 0.00 0.53 0.00 99 1011.1
20260509090005 66 0 0.0 0.0 0.00 0.53 0.00 99 1011.0
20260509085004 66 0 0.0 0.0 0.00 0.53 0.00 99 1011.0
20260509084219 66 0 0.0 0.0 0.00 0.53 0.00 99 1010.9
20260509083005 67 0 0.0 0.0 0.00 0.53 0.00 99 1010.8
20260509082004 67 0 0.0 0.0 0.00 0.53 0.00 99 1011.1
20260509081217 67 0 0.0 0.0 0.00 0.53 0.00 99 1011.3
20260509080217 67 78 0.0 3.0 0.00 0.53 0.00 99 1011.2
20260509075004 67 74 0.0 2.0 0.00 0.53 0.00 99 1011.0
20260509074214 67 81 0.0 1.0 0.00 0.53 0.00 99 1010.9
20260509073215 67 80 0.0 3.0 0.00 0.53 0.00 99 1011.3
20260509072004 67 81 1.0 4.0 0.00 0.53 0.00 99 1011.3
20260509071004 68 71 0.0 2.0 0.00 0.53 0.00 99 1011.6
20260509070005 67 75 0.0 2.0 0.00 0.53 0.00 99 1011.8
20260509065004 67 86 0.0 1.0 0.00 0.53 0.00 99 1012.0
20260509064005 68 0 0.0 0.0 0.00 0.53 0.00 99 1012.1
20260509063004 67 82 1.0 3.0 0.00 0.53 0.00 99 1012.1
20260509062004 68 82 0.0 2.0 0.00 0.53 0.00 99 1012.2
20260509061005 68 95 1.0 3.0 0.00 0.53 0.00 99 1012.3
20260509060005 68 99 0.0 2.0 0.00 0.53 0.00 99 1012.5
20260509055004 68 100 0.0 1.0 0.00 0.53 0.00 99 1012.6
20260509054005 69 94 1.0 3.0 0.00 0.53 0.00 99 1012.6
20260509053004 69 39 1.0 3.0 0.00 0.53 0.00 99 1012.5
20260509052005 69 52 1.0 3.0 0.00 0.53 0.00 99 1012.7
20260509051005 69 7 2.0 4.0 0.00 0.53 0.00 99 1013.1
20260509050005 70 5 2.0 4.0 0.00 0.53 0.00 99 1013.4
20260509045004 70 9 2.0 3.0 0.00 0.53 0.00 99 1013.5
20260509044005 70 10 2.0 4.0 0.00 0.53 0.00 99 1013.7
20260509043005 70 34 1.0 3.0 0.00 0.53 0.00 99 1013.6
20260509042218 70 46 1.0 3.0 0.00 0.53 0.00 99 1013.9
20260509041004 70 32 1.0 2.0 0.00 0.53 0.00 99 1013.7
20260509040020 70 12 1.0 3.0 0.00 0.53 0.00 99 1013.7
20260509035005 70 53 1.0 2.0 0.00 0.53 0.53 99 1013.7
20260509034004 70 0 0.0 0.0 0.00 0.53 0.53 99 1013.6
20260509033005 70 0 0.0 0.0 0.00 0.53 0.53 99 1013.4
20260509032004 70 51 0.0 1.0 0.00 0.53 0.53 99 1013.5
20260509031005 70 54 0.0 2.0 0.00 0.53 0.53 99 1013.5
20260509030005 71 0 0.0 0.0 0.00 0.53 0.53 99 1013.5
20260509025004 71 0 0.0 0.0 0.00 0.53 0.53 99 1013.4
20260509024218 71 0 0.0 0.0 0.00 0.53 0.53 99 1013.2
20260509023005 71 0 0.0 0.0 0.00 0.53 0.53 99 1013.3
20260509022004 71 0 0.0 0.0 0.00 0.53 0.53 99 1013.1
20260509021004 70 0 0.0 0.0 0.00 0.53 0.53 99 1012.9
20260509020005 71 0 0.0 0.0 0.00 0.53 0.53 99 1012.7
20260509015217 70 0 0.0 0.0 0.00 0.53 0.53 99 1012.6
20260509014218 71 0 0.0 0.0 0.00 0.53 0.53 99 1012.8
20260509013005 71 0 0.0 0.0 0.00 0.53 0.53 99 1012.8
20260509012215 71 60 0.0 1.0 0.00 0.53 0.53 99 1012.6
20260509011005 71 99 0.0 1.0 0.01 0.53 0.53 99 1012.5
20260509010006 71 84 0.0 2.0 0.02 0.53 0.53 99 1012.3
20260509005005 71 73 0.0 2.0 0.02 0.53 0.53 99 1012.3
20260509004005 71 0 0.0 0.0 0.02 0.53 0.53 99 1012.4
20260509003004 71 81 0.0 1.0 0.02 0.53 0.53 99 1012.1
20260509002005 71 104 0.0 2.0 0.02 0.53 0.53 99 1012.0
20260509001005 71 88 1.0 4.0 0.01 0.52 0.52 99 1011.7